Change the Weather History Date:

Saturday, June 29, 2013

  Actual Average Record
Temperature  
Mean Temperature 79 °F 79 °F  
Max Temperature 88 °F 89 °F 106 °F (2012)
Min Temperature 70 °F 69 °F 52 °F (1974)
Degree Days  
Heating Degree Days 0 0  
Month to date heating degree days 0 0  
Since 1 June heating degree days 0 0  
Since 1 July heating degree days 3078 3238  
Cooling Degree Days 14 14  
Month to date cooling degree days 386 331  
Year to date cooling degree days 562 527  
Since 1 June cooling degree days 386 331  
Growing Degree Days 28 (Base 50)    
Moisture  
Dew Point 63 °F    
Average Humidity 63    
Maximum Humidity 93    
Minimum Humidity 32    
Precipitation  
Precipitation 0.06 in 0.15 in 1.21 in (1935)
Month to date precipitation 4.17 3.90  
Year to date precipitation 38.84 26.72  
Snow  
Snow 0.00 in 0.00 in - ()
Month to date snowfall 0.0 0.0  
Since 1 June snowfall 0.0 0.0  
Since 1 July snowfall 0.3 3.9  
Snow Depth 0.00 in    
Sea Level Pressure  
Sea Level Pressure 29.69 in    
Wind  
Wind Speed 4 mph (WSW)    
Max Wind Speed 13 mph    
Max Gust Speed 17 mph    
Visibility 10 miles    
Events Fog , Rain    
T = Trace of Precipitation, MM = Missing Value Source: NWS Daily Summary

Daily Weather History Graph

Daily Weather History Graph

Search for Another Location

Airport or City:

Trip Planner

Search our weather history database for the weather conditions in past years. The results will help you decide how hot, cold, wet, or windy it might be!

Date:

Astronomy

Jun. 29, 2013 Rise Set
Actual Time 6:29 AM EDT 8:58 PM EDT
Civil Twilight 6:00 AM EDT 9:28 PM EDT
Nautical Twilight 5:23 AM EDT 10:05 PM EDT
Astronomical Twilight 4:42 AM EDT 10:45 PM EDT
Moon 12:43 AM EDT (6/29) 1:23 PM EDT (6/29)
Length of Visible Light 15h 28m
Length of Day
14h 29m
Waning Gibbous, 56% of the Moon is Illuminated
Jun 29
Waning Gibbous
Jun 30
Last Quarter
Jul 8
New
Jul 15
First Quarter
Jul 22
Full

Hourly Weather History & Observations

Time (EDT) Temp. Heat Index Dew Point Humidity Pressure Visibility Wind Dir Wind Speed Gust Speed Precip Events Conditions
12:53 AM 70.0 °F - 66.9 °F 90% 29.72 in 10.0 mi NNW 8.1 mph - N/A   Mostly Cloudy
1:53 AM 71.1 °F - 68.0 °F 90% 29.68 in 10.0 mi Calm Calm - N/A   Scattered Clouds
2:53 AM 70.0 °F - 66.9 °F 90% 29.68 in 10.0 mi Calm Calm - N/A   Clear
3:53 AM 71.1 °F - 68.0 °F 90% 29.68 in 10.0 mi Calm Calm - N/A   Scattered Clouds
4:53 AM 71.1 °F - 69.1 °F 93% 29.69 in 10.0 mi SSE 5.8 mph - 0.06 in Rain Light Rain
5:53 AM 71.1 °F - 69.1 °F 93% 29.70 in 10.0 mi SSW 3.5 mph - 0.00 in   Mostly Cloudy
6:53 AM 71.1 °F - 68.0 °F 90% 29.70 in 10.0 mi Calm Calm - N/A Fog Patches of Fog
7:53 AM 72.0 °F - 69.1 °F 91% 29.71 in 10.0 mi Calm Calm - N/A Fog Patches of Fog
8:53 AM 75.0 °F - 70.0 °F 84% 29.70 in 10.0 mi Calm Calm - N/A   Scattered Clouds
9:53 AM 79.0 °F - 69.1 °F 72% 29.70 in 10.0 mi Calm Calm - N/A   Scattered Clouds
10:53 AM 82.0 °F 84.1 °F 66.0 °F 58% 29.70 in 10.0 mi Calm Calm - N/A   Scattered Clouds
11:53 AM 84.9 °F 83.9 °F 57.0 °F 38% 29.71 in 10.0 mi West 5.8 mph - N/A   Scattered Clouds
12:53 PM 86.0 °F 84.2 °F 54.0 °F 33% 29.71 in 10.0 mi West 9.2 mph - N/A   Scattered Clouds
1:53 PM 84.0 °F 83.5 °F 57.9 °F 41% 29.70 in 10.0 mi NW 9.2 mph - N/A   Mostly Cloudy
2:53 PM 86.0 °F 85.4 °F 59.0 °F 40% 29.69 in 10.0 mi West 10.4 mph - N/A   Mostly Cloudy
3:53 PM 87.1 °F 85.9 °F 57.0 °F 36% 29.68 in 10.0 mi SW 8.1 mph - N/A   Mostly Cloudy
4:53 PM 86.0 °F 84.7 °F 55.9 °F 36% 29.67 in 10.0 mi WSW 4.6 mph - N/A   Scattered Clouds
5:53 PM 87.1 °F 85.9 °F 57.0 °F 36% 29.65 in 10.0 mi West 11.5 mph 17.3 mph N/A   Scattered Clouds
6:53 PM 87.1 °F 85.9 °F 57.0 °F 36% 29.65 in 10.0 mi West 6.9 mph - N/A   Scattered Clouds
7:53 PM 86.0 °F 85.0 °F 57.9 °F 38% 29.66 in 10.0 mi WSW 6.9 mph - N/A   Scattered Clouds
8:53 PM 82.0 °F 82.4 °F 60.1 °F 47% 29.66 in 10.0 mi WSW 3.5 mph - N/A   Scattered Clouds
9:53 PM 80.1 °F 81.1 °F 61.0 °F 52% 29.68 in 10.0 mi SW 4.6 mph - N/A   Scattered Clouds
10:53 PM 75.9 °F - 63.0 °F 64% 29.70 in 10.0 mi South 4.6 mph - N/A   Scattered Clouds
11:53 PM 75.0 °F - 64.0 °F 69% 29.70 in 10.0 mi Calm Calm - N/A   Mostly Cloudy